Weather in Tupik

Russia / Zabaykalsky Krai     54°25′35″N   119°56′20″E
temp.,
°C
wind,
m/s
gust,
m/s
humid.,
%
clouds,
%
prec.,
mm/h
press.,
hPa
HPBL,
m
22 october, fri
fri2200:00−2wsw11745 0.0 102312
03:00−2wsw22755 0.0 102315
06:00−2wsw227824 0.0 102318
09:00−1sw237210 0.0 102375
12:00+4sw24555 0.0 1020354
15:00+8wsw364770 0.0 1017612
18:00+2wsw126688 0.0 101910
21:000sw337459 0.0 101926
23 october, sat
sat2300:00−1wsw22765 0.0 101916
03:00−1wsw22765 0.0 101917
06:00−2wsw12775 0.0 102011
09:000wsw11725 0.0 102043
12:00+4w12545 0.0 1019416
15:00+6wnw12505 0.0 1018579
18:00+1wnw11705 0.0 101910
21:00−1sw11765 0.0 102010
24 october, sun
sun2400:00−2sw11815 0.0 102010
03:00−2sw118010 0.0 101910
06:00−2sw118089 0.0 101910
09:00−1sw1174100 0.0 101847
12:00+4wsw12539 0.0 1016359
15:00+5w12495 0.0 1014542
18:00+1n11685 0.0 101510
21:00−1ssw117721 0.0 101610
25 october, mon
mon2500:00−2sw228316 0.0 101511
03:00−2sw22815 0.0 101412
06:00−2sw22805 0.0 101415
09:00−1sw2273100 0.0 101371
12:00+3wsw235371 0.0 1011394
15:00+4wnw2450100 0.0 1009584
18:000w116771 0.0 101110
21:00−1wsw2271100 0.0 101214
26 october, tue
tue2600:00−1nw117088 0.0 101311
03:00−2nnw117643 0.0 101410
06:00−2w1177100 0.0 101610
09:00−1w1169100 0.0 101756
12:00+2w12535 0.0 1016534
15:00+4w45435 0.0 10141234
18:00−1sw2257100 0.0 101416
21:00−2sw2261100 0.0 101424